Time,TemperatureF,DewpointF,PressureIn,WindDirection,WindDirectionDegrees,WindSpeedMPH,WindSpeedGustMPH,Humidity,HourlyPrecipIn,Conditions,Clouds,dailyrainin,SoftwareType,DateUTC
2013-09-28 00:25:00,57.0,50.0,30.27,NNE,22,0.0,1.0,76,0.00,,,0.00,,2013-09-28 04:25:00,
2013-09-28 00:43:00,57.0,50.0,30.27,NNE,22,0.0,2.0,76,0.00,,,0.00,,2013-09-28 04:43:00,
2013-09-28 00:54:00,57.0,50.0,30.27,NNE,23,0.0,2.0,77,0.00,,,0.00,,2013-09-28 04:54:00,
2013-09-28 01:13:00,57.0,50.0,30.27,NNE,22,0.0,1.0,77,0.00,,,0.00,,2013-09-28 05:13:00,
2013-09-28 01:22:00,57.0,50.0,30.27,NNE,23,0.0,0.0,76,0.00,,,0.00,,2013-09-28 05:22:00,
2013-09-28 01:53:00,56.0,49.0,30.27,NNE,22,0.0,2.0,76,0.00,,,0.00,,2013-09-28 05:53:00,
2013-09-28 02:13:00,56.0,49.0,30.28,NNE,23,0.0,3.0,76,0.00,,,0.00,,2013-09-28 06:13:00,
2013-09-28 02:22:00,56.0,49.0,30.28,NNE,22,0.0,0.0,76,0.00,,,0.00,,2013-09-28 06:22:00,
2013-09-28 02:52:00,54.0,46.0,30.28,NNE,22,0.0,0.0,75,0.00,,,0.00,,2013-09-28 06:52:00,
2013-09-28 03:12:00,53.0,45.0,30.27,NNE,22,0.0,0.0,74,0.00,,,0.00,,2013-09-28 07:12:00,
2013-09-28 03:22:00,52.0,44.0,30.27,NNE,23,0.0,2.0,74,0.00,,,0.00,,2013-09-28 07:22:00,
2013-09-28 03:52:00,51.0,43.0,30.27,NNE,24,0.0,0.0,73,0.00,,,0.00,,2013-09-28 07:52:00,
2013-09-28 04:13:00,50.0,42.0,30.28,NNE,23,0.0,0.0,75,0.00,,,0.00,,2013-09-28 08:13:00,
2013-09-28 04:22:00,50.0,42.0,30.28,NNE,23,0.0,0.0,73,0.00,,,0.00,,2013-09-28 08:22:00,
2013-09-28 04:53:00,49.0,41.0,30.28,NNE,22,0.0,0.0,73,0.00,,,0.00,,2013-09-28 08:53:00,
2013-09-28 09:22:00,51.0,43.0,30.33,ESE,109,1.0,3.0,75,0.00,,,0.00,,2013-09-28 13:22:00,
2013-09-28 09:52:00,53.0,45.0,30.34,East,97,0.0,3.0,75,0.00,,,0.00,,2013-09-28 13:52:00,
2013-09-28 10:12:00,54.0,46.0,30.34,East,86,1.0,3.0,73,0.00,,,0.00,,2013-09-28 14:12:00,
2013-09-28 10:21:00,55.0,47.0,30.35,NE,56,0.0,5.0,74,0.00,,,0.00,,2013-09-28 14:21:00,
2013-09-28 10:42:00,59.0,51.0,30.34,NNE,21,2.0,3.0,76,0.00,,,0.00,,2013-09-28 14:42:00,
2013-09-28 10:52:00,60.0,52.0,30.35,SSW,200,1.0,3.0,76,0.00,,,0.00,,2013-09-28 14:52:00,
2013-09-28 11:23:00,65.0,56.0,30.34,NE,35,2.0,5.0,72,0.00,,,0.00,,2013-09-28 15:23:00,
2013-09-28 11:44:00,66.0,56.0,30.33,ESE,117,1.0,5.0,69,0.00,,,0.00,,2013-09-28 15:44:00,
2013-09-28 11:54:00,67.0,56.0,30.33,North,9,3.0,8.0,68,0.00,,,0.00,,2013-09-28 15:54:00,
2013-09-28 12:14:00,68.0,57.0,30.33,SSW,200,2.0,7.0,68,0.00,,,0.00,,2013-09-28 16:14:00,
2013-09-28 12:24:00,68.0,57.0,30.32,East,92,1.0,6.0,67,0.00,,,0.00,,2013-09-28 16:24:00,
2013-09-28 12:43:00,69.0,56.0,30.32,South,173,2.0,5.0,64,0.00,,,0.00,,2013-09-28 16:43:00,
2013-09-28 12:54:00,70.0,55.0,30.32,ENE,76,1.0,7.0,60,0.00,,,0.00,,2013-09-28 16:54:00,
2013-09-28 13:13:00,70.0,54.0,30.31,NE,34,2.0,6.0,56,0.00,,,0.00,,2013-09-28 17:13:00,
2013-09-28 13:23:00,71.0,54.0,30.31,East,93,0.0,3.0,56,0.00,,,0.00,,2013-09-28 17:23:00,
2013-09-28 13:52:00,71.0,55.0,30.30,NNE,17,3.0,9.0,57,0.00,,,0.00,,2013-09-28 17:52:00,
2013-09-28 14:12:00,73.0,55.0,30.29,South,180,1.0,8.0,53,0.00,,,0.00,,2013-09-28 18:12:00,
2013-09-28 14:22:00,73.0,53.0,30.28,SSW,200,4.0,8.0,50,0.00,,,0.00,,2013-09-28 18:22:00,
2013-09-28 14:42:00,72.0,53.0,30.28,SW,219,1.0,6.0,52,0.00,,,0.00,,2013-09-28 18:42:00,
2013-09-28 14:52:00,73.0,54.0,30.27,NNE,33,1.0,5.0,51,0.00,,,0.00,,2013-09-28 18:52:00,
2013-09-28 15:11:00,73.0,56.0,30.27,ESE,119,2.0,6.0,55,0.00,,,0.00,,2013-09-28 19:11:00,
2013-09-28 15:22:00,72.0,55.0,30.27,SSW,200,3.0,8.0,55,0.00,,,0.00,,2013-09-28 19:22:00,
2013-09-28 15:42:00,73.0,56.0,30.27,South,180,2.0,5.0,56,0.00,,,0.00,,2013-09-28 19:42:00,
2013-09-28 15:52:00,73.0,55.0,30.26,WSW,253,2.0,7.0,53,0.00,,,0.00,,2013-09-28 19:52:00,
2013-09-28 16:12:00,72.0,57.0,30.26,East,95,1.0,3.0,59,0.00,,,0.00,,2013-09-28 20:12:00,
2013-09-28 16:22:00,72.0,56.0,30.26,East,90,0.0,5.0,57,0.00,,,0.00,,2013-09-28 20:22:00,
2013-09-28 16:43:00,71.0,54.0,30.25,NNE,26,1.0,5.0,56,0.00,,,0.00,,2013-09-28 20:43:00,
2013-09-28 16:52:00,71.0,58.0,30.25,NNE,28,1.0,2.0,63,0.00,,,0.00,,2013-09-28 20:52:00,
2013-09-28 17:12:00,69.0,56.0,30.25,ENE,76,0.0,2.0,64,0.00,,,0.00,,2013-09-28 21:12:00,
2013-09-28 17:23:00,68.0,57.0,30.25,ENE,76,0.0,1.0,68,0.00,,,0.00,,2013-09-28 21:23:00,
2013-09-28 17:44:00,66.0,56.0,30.24,ENE,76,0.0,0.0,71,0.00,,,0.00,,2013-09-28 21:44:00,
2013-09-28 17:55:00,65.0,56.0,30.25,ENE,74,0.0,0.0,72,0.00,,,0.00,,2013-09-28 21:55:00,
2013-09-28 18:14:00,65.0,56.0,30.24,ENE,74,0.0,0.0,73,0.00,,,0.00,,2013-09-28 22:14:00,
2013-09-28 18:23:00,64.0,56.0,30.24,ENE,74,0.0,1.0,74,0.00,,,0.00,,2013-09-28 22:23:00,
2013-09-28 18:43:00,64.0,56.0,30.25,ENE,75,0.0,1.0,74,0.00,,,0.00,,2013-09-28 22:43:00,
2013-09-28 18:54:00,63.0,55.0,30.24,ENE,76,0.0,1.0,75,0.00,,,0.00,,2013-09-28 22:54:00,
2013-09-28 19:13:00,62.0,54.0,30.24,ENE,75,0.0,0.0,75,0.00,,,0.00,,2013-09-28 23:13:00,
2013-09-28 19:22:00,61.0,53.0,30.24,ENE,75,0.0,0.0,76,0.00,,,0.00,,2013-09-28 23:22:00,
2013-09-28 19:52:00,59.0,51.0,30.24,ENE,74,0.0,0.0,75,0.00,,,0.00,,2013-09-28 23:52:00,
2013-09-28 20:11:00,58.0,50.0,30.24,ENE,76,0.0,1.0,74,0.00,,,0.00,,2013-09-29 00:11:00,
2013-09-28 20:22:00,57.0,49.0,30.24,ENE,74,0.0,1.0,74,0.00,,,0.00,,2013-09-29 00:22:00,
2013-09-28 20:43:00,57.0,48.0,30.24,ENE,76,0.0,0.0,73,0.00,,,0.00,,2013-09-29 00:43:00,
2013-09-28 20:52:00,56.0,47.0,30.24,ENE,75,0.0,0.0,73,0.00,,,0.00,,2013-09-29 00:52:00,
2013-09-28 21:12:00,55.0,47.0,30.24,ENE,75,0.0,0.0,73,0.00,,,0.00,,2013-09-29 01:12:00,
2013-09-28 21:22:00,55.0,47.0,30.24,ENE,75,0.0,0.0,73,0.00,,,0.00,,2013-09-29 01:22:00,
2013-09-28 21:43:00,54.0,46.0,30.25,ENE,76,0.0,1.0,73,0.00,,,0.00,,2013-09-29 01:43:00,
2013-09-28 21:52:00,54.0,46.0,30.25,ENE,76,0.0,1.0,73,0.00,,,0.00,,2013-09-29 01:52:00,
2013-09-28 22:12:00,54.0,46.0,30.25,ENE,75,0.0,0.0,73,0.00,,,0.00,,2013-09-29 02:12:00,
2013-09-28 22:22:00,54.0,46.0,30.25,ENE,75,0.0,0.0,73,0.00,,,0.00,,2013-09-29 02:22:00,
2013-09-28 22:43:00,53.0,45.0,30.25,ENE,75,0.0,0.0,73,0.00,,,0.00,,2013-09-29 02:43:00,
2013-09-28 22:53:00,53.0,45.0,30.25,ENE,75,1.0,2.0,73,0.00,,,0.00,,2013-09-29 02:53:00,
2013-09-28 23:12:00,53.0,45.0,30.24,ENE,76,0.0,1.0,73,0.00,,,0.00,,2013-09-29 03:12:00,
2013-09-28 23:23:00,53.0,45.0,30.24,ENE,75,0.0,0.0,73,0.00,,,0.00,,2013-09-29 03:23:00,
2013-09-28 23:55:00,52.0,44.0,30.24,ENE,76,0.0,0.0,73,0.00,,,0.00,,2013-09-29 03:55:00,